Bluefield, WV

4:56 AM EST on December 10, 2019 (GMT -0500)
Mercer County

Weather History for KBLF - November, 2019

Change the Weather History Date:

Tuesday, November 19, 2019

  Actual Average Record
Temperature  
Mean Temperature 41 °F 46 °F  
Max Temperature 46 °F 54 °F 74 °F (1985)
Min Temperature 35 °F 38 °F 12 °F (2014)
Degree Days  
Heating Degree Days 24 19  
Month to date heating degree days 501 304  
Since 1 July heating degree days 814 668  
Cooling Degree Days 0 0  
Month to date cooling degree days 0 0  
Year to date cooling degree days 748 851  
Moisture  
Dew Point 30 °F    
Average Humidity 69    
Maximum Humidity 89    
Minimum Humidity 49    
Precipitation  
Precipitation 0.00 in 0.09 in 0.84 in (1932)
Month to date precipitation 0.35 1.65  
Year to date precipitation 35.15 35.68  
Snow  
Snow 0.00 in - - ()
Month to date snowfall 1.0  
Since 1 July snowfall 1.0  
Since 1 September snowfall 1.0  
Snow Depth 0.00 in    
Sea Level Pressure  
Sea Level Pressure 29.83 in    
Wind  
Wind Speed 5 mph (West)    
Max Wind Speed 13 mph    
Max Gust Speed 15 mph    
Visibility 10 miles    
Events      
T = Trace of Precipitation, MM = Missing Value Source: NWS Daily Summary

Daily Weather History Graph

Daily Weather History Graph

Search for Another Location

Airport or City:

Astronomy

Nov. 19, 2019 Rise Set
Actual Time 7:07 AM EST 5:12 PM EST
Civil Twilight 6:39 AM EST 5:40 PM EST
Nautical Twilight 6:08 AM EST 6:11 PM EST
Astronomical Twilight 5:37 AM EST 6:42 PM EST
Moon No Moon Rise 1:18 PM EST (11/19)
Length of Visible Light 11h 00m
Length of Day
10h 04m
Waning Gibbous, 52% of the Moon is Illuminated
Nov 19
Waning Gibbous
Nov 19
Last Quarter
Nov 26
New
Dec 4
First Quarter
Dec 12
Full

Hourly Weather History & Observations

Time (EST) Temp. Windchill Dew Point Humidity Pressure Visibility Wind Dir Wind Speed Gust Speed Precip Events Conditions
12:52 AM 37.0 °F 34.5 °F 30.9 °F 79% 29.78 in 10.0 mi West 3.5 mph - N/A   Overcast
1:22 AM 36.0 °F 32.1 °F 30.9 °F 82% 29.77 in 10.0 mi West 4.6 mph - N/A   Overcast
1:52 AM 35.1 °F 32.2 °F 30.9 °F 85% 29.78 in 10.0 mi SSW 3.5 mph - N/A   Overcast
2:52 AM 37.0 °F - 30.9 °F 79% 29.77 in 10.0 mi Calm Calm - N/A   Overcast
3:52 AM 35.1 °F 31.0 °F 30.9 °F 85% 29.77 in 10.0 mi West 4.6 mph - N/A   Mostly Cloudy
4:28 AM 35.1 °F 32.2 °F 30.9 °F 85% 29.76 in 10.0 mi WSW 3.5 mph - N/A   Mostly Cloudy
4:52 AM 35.1 °F 30.1 °F 30.9 °F 85% 29.78 in 10.0 mi West 5.8 mph - N/A   Scattered Clouds
5:48 AM 35.6 °F 31.7 °F 32.0 °F 87% 29.77 in 10.0 mi West 4.6 mph - N/A   Overcast
5:52 AM 35.1 °F 31.0 °F 32.0 °F 89% 29.79 in 10.0 mi WSW 4.6 mph - N/A   Overcast
6:02 AM 35.1 °F 32.2 °F 32.0 °F 89% 29.78 in 10.0 mi West 3.5 mph - N/A   Overcast
6:52 AM 35.1 °F 31.0 °F 32.0 °F 89% 29.81 in 10.0 mi West 4.6 mph - N/A   Overcast
7:52 AM 36.0 °F 33.3 °F 32.0 °F 86% 29.83 in 10.0 mi West 3.5 mph - N/A   Overcast
8:52 AM 36.0 °F 31.1 °F 32.0 °F 86% 29.84 in 10.0 mi WSW 5.8 mph - N/A   Overcast
9:21 AM 36.0 °F 32.1 °F 32.0 °F 86% 29.82 in 10.0 mi Variable 4.6 mph - N/A   Overcast
9:42 AM 36.0 °F 30.3 °F 30.9 °F 82% 29.82 in 10.0 mi Variable 6.9 mph - N/A   Overcast
9:49 AM 37.4 °F 32.8 °F 32.0 °F 81% 29.82 in 10.0 mi West 5.8 mph - N/A   Overcast
9:52 AM 36.0 °F 31.1 °F 32.0 °F 86% 29.85 in 10.0 mi West 5.8 mph - N/A   Overcast
10:37 AM 37.0 °F 33.3 °F 30.9 °F 79% 29.83 in 10.0 mi WNW 4.6 mph - N/A   Overcast
10:52 AM 37.0 °F 33.3 °F 32.0 °F 82% 29.85 in 10.0 mi Variable 4.6 mph - N/A   Overcast
11:52 AM 39.0 °F 33.4 °F 30.9 °F 73% 29.85 in 10.0 mi WSW 8.1 mph - N/A   Overcast
12:52 PM 39.9 °F 35.1 °F 30.0 °F 68% 29.82 in 10.0 mi WNW 6.9 mph - N/A   Mostly Cloudy
1:52 PM 43.0 °F 39.5 °F 28.0 °F 56% 29.81 in 10.0 mi WSW 5.8 mph - N/A   Partly Cloudy
2:52 PM 45.0 °F 42.6 °F 27.0 °F 49% 29.80 in 10.0 mi Variable 4.6 mph - N/A   Clear
3:52 PM 44.1 °F 42.5 °F 26.1 °F 49% 29.81 in 10.0 mi Variable 3.5 mph - N/A   Overcast
4:52 PM 44.1 °F 41.5 °F 26.1 °F 49% 29.83 in 10.0 mi NW 4.6 mph - N/A   Overcast
5:52 PM 43.0 °F 40.3 °F 26.1 °F 51% 29.86 in 10.0 mi WNW 4.6 mph - N/A   Overcast
6:52 PM 42.1 °F 40.2 °F 27.0 °F 55% 29.88 in 10.0 mi WNW 3.5 mph - N/A   Overcast
7:52 PM 41.0 °F 37.1 °F 27.0 °F 57% 29.89 in 10.0 mi Variable 5.8 mph - N/A   Overcast
8:52 PM 39.0 °F 33.4 °F 30.0 °F 70% 29.92 in 10.0 mi West 8.1 mph - N/A   Overcast
9:52 PM 37.9 °F 34.4 °F 30.0 °F 73% 29.93 in 10.0 mi West 4.6 mph - N/A   Overcast
10:52 PM 37.9 °F 34.4 °F 30.0 °F 73% 29.92 in 10.0 mi West 4.6 mph - N/A   Overcast
11:52 PM 37.0 °F 31.6 °F 30.9 °F 79% 29.93 in 10.0 mi West 6.9 mph - N/A   Overcast